Other Surface Observations
Issued by NWS

Home | Current Version | Previous Version | Text Only | Print | Product List | Glossary On
Versions: 1 2 3 4 5 6 7 8 9 10 11 12 13 14 15 16 17 18 19 20 21 22 23 24 25 26 27 28 29 30 31 32 33 34 35 36 37 38 39 40 41 42 43 44 45 46 47 48 49 50
000
SXUS52 KTAE 241206
OSOTAE
OSOTAE
North Florida/South Alabama/Southwest Georgia Weather Roundup
National Weather Service Tallahassee Florida
800 AM EDT WED AUG 24 2016

Note: "fair" indicates few or no clouds below 12,000 feet with no
significant weather and/or obstructions to visibility.

!FLZ017-115-028-034-025-241300
...North Florida...

CITY           SKY/WX    TMP DP  RH WIND       PRES   REMARKS
TALLAHASSEE    PTCLDY    79  77  94 E7        30.18R
APALACHICOLA   MOCLDY    77  77 100 NE7       30.15R
PERRY          PTSUNNY   76  75  97 CALM      30.18S FOG
CROSS CITY     SUNNY     77  75  94 NE5       30.17R
JACKSONVILLE   MOSUNNY   79  76  90 N3        30.18R
$$

!FLZ112-006-005-002-011-241300
...Florida Panhandle...

CITY           SKY/WX    TMP DP  RH WIND       PRES   REMARKS
MARIANNA       MOCLDY    76  75  97 NE6       30.18R
BONIFAY        FAIR      75  74  96 NE3       30.19R
PANAMA CITY NW FAIR      76  74  93 NE3       30.16R
TYNDALL AFB    CLEAR     77  74  93 NE8       30.16R
TYND DRONE APT FAIR      76  75  98 NE9       30.16R
DE FUNIAK SPR  FAIR      74  74  99 E5        30.20R
EGLIN AFB      PTCLDY    77  73  88 E6        30.17R
DESTIN         CLEAR     81  77  88 E8        30.16R
HURLBURT       CLEAR     77  75  92 E7        30.15R
CRESTVIEW      PTCLDY    75  73  93 E3        30.19R
PENSACOLA      CLEAR     79  74  84 CALM      30.16R
$$

!ALZ063-066-241300
...South Alabama...

CITY           SKY/WX    TMP DP  RH WIND       PRES   REMARKS
DOTHAN         MOCLDY    75  75 100 E7        30.24R
OZARK CAIRNS   PTCLDY    74  74 100 E3        30.19R
FT RUCKER HELI CLEAR     75  73  93 CALM      30.19R
RUCKER HELI 3  NOT AVBL
RUCKER HELI 2  FAIR      76  74  93 E5        30.20R
FLORALA APT    PTCLDY    74  73  97 CALM      30.21R
ANDALUSIA      CLEAR     78  73  84 E3        30.19R
TROY           CLEAR     74  74 100 CALM      30.22R
EUFALA         MOCLDY    78  75  90 E3        30.21R
MOBILE         CLOUDY    79  75  87 N5        30.16R
$$

!GAZ120>161-241300
...Southwest and South Central Georgia...

CITY           SKY/WX    TMP DP  RH WIND       PRES   REMARKS
THOMASVILLE      N/A     77  77 100 CALM      30.21R FOG
BAINBRIDGE     CLOUDY    77  73  88 CALM      30.20R
MOODY AFB      PTSUNNY   74  74  98 NE3       30.20R
VALDOSTA       CLOUDY    75  75 100 NE3       30.20R
MOULTRIE       CLOUDY    75  73  94 NE3       30.22R FOG
BLAKELY        CLOUDY    77  73  88 CALM        N/A
ALBANY         PTSUNNY   76  74  93 NE8       30.24R
TIFTON         FAIR      74  74 100 NE3       30.22R
FITZGERALD       N/A     78  78 100 CALM      30.26R
CORDELE        FAIR      76  75  98 CALM      30.25R
AMERICUS       FAIR      73  73 100 E3        30.26R FOG
HOMERVILLE     FAIR      75  75 100 CALM      30.22R
$$

!GMZ750-755-770-775-241300
...Coastal and Buoy Obs...

STATION/POSITION TIME  TEMP    WIND        PRES    VSBY  WAVE
                       AIR SEA DIR/SP/G                  HT/PER
                 (UTC) (F)     (DEG/KT/KT) (MB)    (MI)  (FT/S)
KEATON BEACH     1200   76      30/  5/  7 1021.1R
CEDAR KEY        1100   78      40/  9/ 11 1020.9R
C TOWER          1200   84     100/ 15/ 16 1021.0R
APALACHICOLA BUO 1150   86 87  100/ 12/ 14 1019.6F         3/ 5
PANAMA CITY BUOY 1050   85 87   90/ 10/ 12 1019.7          1/ 4
MOBILE BUOY      1100   86 89  340/  6/  8 1019.5R
ORANGE BCH AL BU 1150   84 87  230/  6/ 10 1020.5R         1
$$




USA.gov is the U.S. government's official web portal to all federal, state and local government web resources and services.